TimeCDT,TemperatureF,Dew PointF,Humidity,Sea Level PressureIn,VisibilityMPH,Wind Direction,Wind SpeedMPH,Gust SpeedMPH,PrecipitationIn,Events,Conditions,WindDirDegrees,DateUTC
12:15 AM,51.1,50.7,99,29.96,7.0,NE,10.4,17.3,N/A,,Overcast,40,2013-07-08 05:15:00
12:35 AM,51.8,51.3,98,29.96,5.0,NE,10.4,-,N/A,,Overcast,50,2013-07-08 05:35:00
12:55 AM,52.3,52.0,99,29.97,7.0,NE,9.2,-,N/A,,Overcast,40,2013-07-08 05:55:00
1:15 AM,52.7,52.2,98,29.97,10.0,NE,9.2,18.4,N/A,,Overcast,50,2013-07-08 06:15:00
1:35 AM,53.1,52.3,97,29.98,10.0,ENE,4.6,16.1,N/A,,Overcast,60,2013-07-08 06:35:00
1:55 AM,52.7,52.3,99,29.99,1.8,ESE,4.6,-,N/A,,Overcast,110,2013-07-08 06:55:00
2:15 AM,51.8,51.4,99,30.00,1.5,East,4.6,-,N/A,,Light Drizzle,80,2013-07-08 07:15:00
2:35 AM,51.8,51.4,99,29.99,2.0,ENE,8.1,-,N/A,Rain,Light Rain,60,2013-07-08 07:35:00
2:55 AM,51.4,51.3,99,29.99,2.5,ENE,10.4,-,N/A,,Overcast,60,2013-07-08 07:55:00
3:15 AM,51.8,51.4,99,29.99,2.0,ENE,8.1,-,0.01,,Overcast,60,2013-07-08 08:15:00
3:35 AM,51.8,51.4,99,29.99,1.5,ENE,11.5,18.4,0.01,,Overcast,70,2013-07-08 08:35:00
3:55 AM,51.3,51.3,100,29.99,1.2,ENE,11.5,16.1,0.01,,Overcast,60,2013-07-08 08:55:00
4:15 AM,50.9,50.9,100,29.98,1.5,ENE,9.2,16.1,N/A,,Overcast,70,2013-07-08 09:15:00
4:35 AM,50.7,50.7,100,29.99,1.2,ENE,9.2,-,N/A,,Overcast,70,2013-07-08 09:35:00
4:55 AM,50.7,50.5,99,29.99,1.0,ENE,8.1,-,N/A,,Overcast,60,2013-07-08 09:55:00
5:15 AM,50.9,50.9,100,29.99,0.8,ENE,8.1,16.1,N/A,,Overcast,60,2013-07-08 10:15:00
5:55 AM,50.9,50.9,100,29.99,0.2,ENE,6.9,-,N/A,Fog,Fog,70,2013-07-08 10:55:00
6:15 AM,51.1,51.1,100,30.00,0.2,NE,8.1,-,N/A,Fog,Fog,50,2013-07-08 11:15:00
6:35 AM,51.1,51.1,100,29.99,0.2,ENE,8.1,-,N/A,Fog,Fog,70,2013-07-08 11:35:00
6:55 AM,51.1,51.1,100,29.99,0.2,NE,5.8,-,N/A,Fog,Fog,40,2013-07-08 11:55:00
7:15 AM,51.3,51.3,100,30.00,0.5,ENE,5.8,-,N/A,Fog,Fog,60,2013-07-08 12:15:00
7:35 AM,51.6,51.6,100,30.01,0.8,NNE,4.6,-,N/A,,Overcast,30,2013-07-08 12:35:00
7:55 AM,51.8,51.8,100,30.02,0.5,NE,5.8,-,N/A,Fog,Fog,50,2013-07-08 12:55:00
8:15 AM,51.8,51.8,100,30.02,0.5,NE,4.6,-,N/A,Fog,Fog,40,2013-07-08 13:15:00
8:35 AM,52.9,52.9,100,30.02,1.0,East,4.6,-,N/A,,Overcast,80,2013-07-08 13:35:00
8:55 AM,52.9,52.9,100,30.02,0.8,NE,4.6,-,N/A,,Overcast,50,2013-07-08 13:55:00
9:15 AM,52.9,52.9,100,30.03,1.5,Calm,Calm,-,N/A,,Overcast,0,2013-07-08 14:15:00
9:35 AM,53.1,52.9,99,30.04,3.0,Calm,Calm,-,N/A,,Overcast,0,2013-07-08 14:35:00
9:55 AM,53.4,53.2,99,30.05,3.0,NE,3.5,-,N/A,,Overcast,40,2013-07-08 14:55:00
10:15 AM,53.8,53.2,98,30.05,5.0,NE,5.8,-,N/A,,Overcast,50,2013-07-08 15:15:00
10:35 AM,53.8,53.1,97,30.05,10.0,NE,5.8,-,N/A,,Overcast,50,2013-07-08 15:35:00
10:55 AM,54.1,53.1,96,30.06,7.0,ENE,4.6,-,N/A,,Overcast,60,2013-07-08 15:55:00
11:15 AM,54.9,53.1,94,30.06,10.0,ENE,4.6,-,N/A,,Overcast,60,2013-07-08 16:15:00
11:35 AM,55.9,53.6,92,30.06,10.0,ENE,4.6,-,N/A,,Overcast,60,2013-07-08 16:35:00
11:55 AM,56.5,53.8,91,30.06,10.0,NE,5.8,-,N/A,,Overcast,40,2013-07-08 16:55:00
12:15 PM,57.4,54.1,89,30.05,10.0,NE,5.8,-,N/A,,Overcast,40,2013-07-08 17:15:00
12:35 PM,57.6,53.8,87,30.05,10.0,ENE,4.6,-,N/A,,Overcast,60,2013-07-08 17:35:00
12:55 PM,57.9,54.1,87,30.05,10.0,ENE,4.6,-,N/A,,Overcast,70,2013-07-08 17:55:00
1:15 PM,58.1,54.1,87,30.04,10.0,ENE,3.5,-,N/A,,Overcast,70,2013-07-08 18:15:00
1:35 PM,60.1,55.6,85,30.04,10.0,ENE,3.5,-,N/A,,Overcast,70,2013-07-08 18:35:00
1:55 PM,60.3,55.4,84,30.04,10.0,NE,4.6,-,N/A,,Overcast,50,2013-07-08 18:55:00
2:15 PM,60.8,55.6,83,30.03,10.0,NE,3.5,-,N/A,,Overcast,50,2013-07-08 19:15:00
2:35 PM,61.0,55.9,83,30.03,10.0,ENE,3.5,-,N/A,,Overcast,60,2013-07-08 19:35:00
2:55 PM,61.5,56.3,83,30.02,10.0,ENE,3.5,-,N/A,,Overcast,70,2013-07-08 19:55:00
3:15 PM,62.8,56.5,80,30.02,10.0,Calm,Calm,-,N/A,,Overcast,0,2013-07-08 20:15:00
3:35 PM,63.3,57.0,80,30.02,10.0,Calm,Calm,-,N/A,,Overcast,0,2013-07-08 20:35:00
3:55 PM,64.9,58.1,78,30.01,10.0,Calm,Calm,-,N/A,,Overcast,0,2013-07-08 20:55:00
4:15 PM,65.7,58.6,78,30.01,10.0,Calm,Calm,-,N/A,,Overcast,0,2013-07-08 21:15:00
4:35 PM,66.9,59.5,77,30.01,10.0,Calm,Calm,-,N/A,,Overcast,0,2013-07-08 21:35:00
4:55 PM,67.5,59.7,76,30.00,10.0,East,3.5,-,N/A,,Scattered Clouds,90,2013-07-08 21:55:00
5:15 PM,67.3,60.3,78,30.00,10.0,ENE,3.5,-,N/A,,Clear,60,2013-07-08 22:15:00
5:35 PM,66.2,59.2,78,29.99,10.0,ENE,4.6,-,N/A,,Clear,60,2013-07-08 22:35:00
5:55 PM,65.3,58.6,79,30.00,10.0,NE,4.6,-,N/A,,Clear,40,2013-07-08 22:55:00
6:15 PM,64.2,58.1,80,29.99,10.0,NE,4.6,-,N/A,,Clear,50,2013-07-08 23:15:00
6:35 PM,63.5,57.2,80,29.99,10.0,ENE,5.8,-,N/A,,Clear,60,2013-07-08 23:35:00
6:55 PM,62.6,56.7,81,29.99,10.0,NE,5.8,-,N/A,,Clear,50,2013-07-08 23:55:00
7:15 PM,60.8,55.8,83,29.99,10.0,ENE,5.8,-,N/A,,Clear,60,2013-07-09 00:15:00
7:35 PM,60.3,55.6,85,29.99,10.0,ENE,3.5,-,N/A,,Clear,60,2013-07-09 00:35:00
7:55 PM,58.1,55.4,91,29.99,10.0,NE,3.5,-,N/A,,Clear,40,2013-07-09 00:55:00
8:15 PM,57.7,55.2,91,29.99,10.0,ENE,5.8,-,N/A,,Clear,60,2013-07-09 01:15:00
8:35 PM,56.5,54.3,92,29.99,10.0,ENE,4.6,-,N/A,,Clear,60,2013-07-09 01:35:00
8:55 PM,54.9,53.2,94,29.99,10.0,ENE,3.5,-,N/A,,Clear,70,2013-07-09 01:55:00
9:15 PM,53.6,52.7,97,29.99,10.0,ENE,3.5,-,N/A,,Clear,70,2013-07-09 02:15:00
9:35 PM,52.7,51.8,97,30.00,10.0,Calm,Calm,-,N/A,,Clear,0,2013-07-09 02:35:00
9:55 PM,52.5,51.8,97,30.00,10.0,Calm,Calm,-,N/A,,Clear,0,2013-07-09 02:55:00
10:15 PM,52.2,51.6,98,30.01,10.0,NE,4.6,-,N/A,,Scattered Clouds,50,2013-07-09 03:15:00
10:35 PM,52.7,52.2,98,30.01,10.0,NE,4.6,-,N/A,,Scattered Clouds,40,2013-07-09 03:35:00
10:55 PM,52.3,52.0,99,30.01,10.0,NE,5.8,-,N/A,,Overcast,40,2013-07-09 03:55:00
11:15 PM,52.0,51.6,99,30.02,3.0,NE,5.8,-,N/A,,Overcast,40,2013-07-09 04:15:00
11:35 PM,51.3,51.1,99,30.02,0.5,Calm,Calm,-,N/A,Fog,Fog,0,2013-07-09 04:35:00
11:55 PM,51.1,51.1,100,30.03,0.5,Calm,Calm,-,N/A,Fog,Fog,0,2013-07-09 04:55:00